N60US KADS-KOUN

Flight info

Callsign N60US
Flight time N/A
Altitude 26000
Route NANDR3 ZEMMA WAYMN1
Aircraft C25B/M-SDE2E3FGHRWXY/LB1

Departure

Time 2026-04-20 02:16
Airport Addison Airport (KADS)

Arrival

Time N/A
Airport University of Oklahoma Westheimer Airport (KOUN)
Time Latitude Longitude Altitude Speed Heading
2026-04-20 02:08 32.96128 -96.83135 639 ft 0 kts 160°
2026-04-20 02:13 32.96097 -96.83133 639 ft 10 kts 223°
2026-04-20 02:13 32.96119 -96.83146 639 ft 6 kts 16°
2026-04-20 02:13 32.96180 -96.83208 638 ft 19 kts 322°
2026-04-20 02:13 32.96315 -96.83307 638 ft 22 kts 340°
2026-04-20 02:14 32.96458 -96.83366 638 ft 22 kts 341°
2026-04-20 02:14 32.96644 -96.83447 638 ft 36 kts 341°
2026-04-20 02:14 32.96903 -96.83562 639 ft 40 kts 339°
2026-04-20 02:14 32.97156 -96.83673 639 ft 38 kts 340°
2026-04-20 02:15 32.97328 -96.83748 639 ft 7 kts 340°
2026-04-20 02:15 32.97378 -96.83769 639 ft 9 kts 340°
2026-04-20 02:15 32.97476 -96.83809 639 ft 23 kts 340°
2026-04-20 02:15 32.97664 -96.83893 639 ft 32 kts 340°
2026-04-20 02:16 32.97788 -96.83998 639 ft 14 kts 248°
2026-04-20 02:16 32.97621 -96.83982 639 ft 57 kts 159°
2026-04-20 02:16 32.96874 -96.83674 750 ft 160 kts 160°
2026-04-20 02:16 32.95658 -96.83126 1384 ft 198 kts 157°
2026-04-20 02:17 32.94348 -96.82539 1981 ft 210 kts 159°
2026-04-20 02:17 32.92887 -96.81887 2402 ft 238 kts 158°
2026-04-20 02:17 32.91211 -96.81142 3362 ft 278 kts 159°
2026-04-20 02:17 32.89315 -96.80290 4318 ft 311 kts 159°
2026-04-20 02:18 32.87315 -96.79392 5666 ft 299 kts 159°
2026-04-20 02:18 32.85446 -96.78307 7165 ft 304 kts 144°
2026-04-20 02:18 32.84139 -96.76290 8539 ft 317 kts 116°
2026-04-20 02:18 32.83700 -96.73702 9928 ft 327 kts 89°
2026-04-20 02:19 32.84261 -96.71086 11235 ft 332 kts 63°
2026-04-20 02:19 32.85717 -96.68973 12576 ft 333 kts 37°
2026-04-20 02:19 32.87788 -96.67801 13980 ft 331 kts 11°
2026-04-20 02:19 32.90055 -96.67781 15276 ft 326 kts 347°
2026-04-20 02:20 32.92177 -96.68660 16626 ft 322 kts 330°
2026-04-20 02:20 32.94074 -96.70042 18045 ft 319 kts 324°
2026-04-20 02:20 32.95915 -96.71442 19365 ft 319 kts 324°
2026-04-20 02:20 32.97801 -96.72873 20404 ft 324 kts 324°
2026-04-20 02:21 33.01664 -96.75737 22598 ft 329 kts 324°
2026-04-20 02:21 33.03626 -96.77154 23757 ft 330 kts 324°
2026-04-20 02:21 33.05590 -96.78557 24763 ft 329 kts 324°
2026-04-20 02:22 33.07564 -96.79931 25754 ft 329 kts 324°
2026-04-20 02:22 33.09551 -96.81418 26004 ft 349 kts 320°
2026-04-20 02:22 33.11577 -96.83136 26013 ft 359 kts 320°
2026-04-20 02:22 33.13607 -96.84845 26006 ft 357 kts 320°
2026-04-20 02:23 33.15673 -96.86599 26011 ft 375 kts 320°
2026-04-20 02:23 33.17838 -96.88459 26015 ft 390 kts 320°
2026-04-20 02:23 33.20044 -96.90356 26009 ft 397 kts 320°
2026-04-20 02:23 33.22237 -96.92243 26010 ft 381 kts 320°
2026-04-20 02:24 33.24353 -96.94046 26010 ft 367 kts 320°